Waupaca, WI

11:38 AM CDT on June 27, 2017 (GMT -0500)
Waupaca Municipal

Weather History for KPCZ - October, 2012

Change the Weather History Date:

Thursday, October 11, 2012

  Actual Average Record
Temperature  
Mean Temperature 45 °F -  
Max Temperature 55 °F 59 °F 81 °F (2015)
Min Temperature 35 °F 39 °F 23 °F (1964)
Degree Days  
Heating Degree Days 20    
Moisture  
Dew Point 27 °F    
Average Humidity 48    
Maximum Humidity 61    
Minimum Humidity 26    
Precipitation  
Precipitation 0.00 in - - ()
Sea Level Pressure  
Sea Level Pressure 30.04 in    
Wind  
Wind Speed 9 mph (West)    
Max Wind Speed 17 mph    
Max Gust Speed 23 mph    
Visibility 10 miles    
Events Rain    
Averages and records for this station are not official NWS values.
T = Trace of Precipitation, MM = Missing Value Source: NWS Daily Summary

Daily Weather History Graph

Daily Weather History Graph

Search for Another Location

Airport or City:

Trip Planner

Search our weather history database for the weather conditions in past years. The results will help you decide how hot, cold, wet, or windy it might be!

Date:

Astronomy

Oct. 11, 2012 Rise Set
Actual Time 7:06 AM CDT 6:17 PM CDT
Civil Twilight 6:37 AM CDT 6:47 PM CDT
Nautical Twilight 6:03 AM CDT 7:20 PM CDT
Astronomical Twilight 5:30 AM CDT 7:54 PM CDT
Moon 2:36 AM CDT (10/11) 4:01 PM CDT (10/11)
Length of Visible Light 12h 09m
Length of Day
11h 11m
Waning Crescent, 18% of the Moon is Illuminated
Oct 11
Waning Crescent
Oct 15
New
Oct 21
First Quarter
Oct 29
Full
Nov 6
Last Quarter

Hourly Weather History & Observations

Time (CDT) Temp. Windchill Dew Point Humidity Pressure Visibility Wind Dir Wind Speed Gust Speed Precip Events Conditions
12:15 AM 41.0 °F 38.0 °F 28.4 °F 61% 30.04 in 10.0 mi South 4.6 mph - N/A   Overcast
12:35 AM 41.0 °F 38.0 °F 28.4 °F 61% 30.03 in 10.0 mi South 4.6 mph - N/A   Mostly Cloudy
12:55 AM 41.0 °F 37.1 °F 28.4 °F 61% 30.02 in 10.0 mi South 5.8 mph - N/A   Mostly Cloudy
1:15 AM 41.0 °F 37.1 °F 28.4 °F 61% 30.01 in 10.0 mi South 5.8 mph - N/A   Overcast
1:35 AM 41.0 °F 36.4 °F 28.4 °F 61% 30.01 in 10.0 mi South 6.9 mph - N/A   Overcast
1:55 AM 42.8 °F 38.6 °F 30.2 °F 61% 29.99 in 10.0 mi South 6.9 mph - N/A   Overcast
2:35 AM 42.8 °F 38.0 °F 28.4 °F 57% 29.97 in 10.0 mi South 8.1 mph - N/A   Mostly Cloudy
2:55 AM 42.8 °F 37.5 °F 28.4 °F 57% 29.96 in 10.0 mi South 9.2 mph - N/A   Mostly Cloudy
3:15 AM 44.6 °F 38.8 °F 28.4 °F 53% 29.94 in 10.0 mi South 11.5 mph - N/A   Overcast
3:35 AM 44.6 °F 38.8 °F 28.4 °F 53% 29.92 in 10.0 mi South 11.5 mph - N/A   Light Drizzle
3:55 AM 44.6 °F 38.1 °F 28.4 °F 53% 29.91 in 10.0 mi South 13.8 mph 23.0 mph N/A   Overcast
4:15 AM 44.6 °F 37.2 °F 28.4 °F 53% 29.91 in 10.0 mi SSW 17.3 mph 23.0 mph N/A   Overcast
4:35 AM 44.6 °F 38.4 °F 28.4 °F 53% 29.90 in 10.0 mi South 12.7 mph 19.6 mph N/A   Overcast
4:55 AM 44.6 °F 37.8 °F 28.4 °F 53% 29.90 in 10.0 mi SSW 15.0 mph 20.7 mph N/A   Overcast
5:35 AM 46.4 °F 40.4 °F 28.4 °F 50% 29.88 in 10.0 mi SSW 13.8 mph 21.9 mph N/A   Overcast
5:55 AM 46.4 °F 40.4 °F 28.4 °F 50% 29.90 in 10.0 mi SW 13.8 mph 18.4 mph N/A   Overcast
6:15 AM 46.4 °F 41.9 °F 28.4 °F 50% 29.89 in 10.0 mi SW 9.2 mph 18.4 mph N/A   Overcast
6:35 AM 44.6 °F 39.7 °F 30.2 °F 57% 29.89 in 10.0 mi SW 9.2 mph - N/A Rain Light Rain
6:55 AM 46.4 °F 41.1 °F 30.2 °F 53% 29.89 in 10.0 mi SW 11.5 mph - N/A   Overcast
7:35 AM 46.4 °F 41.9 °F 30.2 °F 53% 29.89 in 10.0 mi SW 9.2 mph - N/A   Scattered Clouds
7:55 AM 50.0 °F - 30.2 °F 47% 29.89 in 10.0 mi SW 11.5 mph 17.3 mph N/A   Mostly Cloudy
8:15 AM 50.0 °F - 30.2 °F 47% 29.90 in 10.0 mi WSW 12.7 mph 16.1 mph N/A   Mostly Cloudy
8:35 AM 51.8 °F - 32.0 °F 47% 29.91 in 10.0 mi WSW 11.5 mph 18.4 mph N/A   Scattered Clouds
8:55 AM 51.8 °F - 32.0 °F 47% 29.92 in 10.0 mi WSW 13.8 mph - N/A   Mostly Cloudy
9:35 AM 53.6 °F - 32.0 °F 44% 29.93 in 10.0 mi West 15.0 mph - N/A   Overcast
9:55 AM 53.6 °F - 32.0 °F 44% 29.93 in 10.0 mi West 10.4 mph - N/A   Mostly Cloudy
10:15 AM 55.4 °F - 32.0 °F 41% 29.94 in 10.0 mi West 13.8 mph 23.0 mph N/A   Mostly Cloudy
10:35 AM 53.6 °F - 32.0 °F 44% 29.96 in 10.0 mi WNW 15.0 mph 18.4 mph N/A   Overcast
10:55 AM 53.6 °F - 32.0 °F 44% 29.97 in 10.0 mi NW 12.7 mph 19.6 mph N/A   Overcast
11:15 AM 53.6 °F - 32.0 °F 44% 29.98 in 10.0 mi NW 15.0 mph 19.6 mph N/A   Overcast
11:35 AM 51.8 °F - 32.0 °F 47% 29.99 in 10.0 mi NW 12.7 mph - N/A   Overcast
11:55 AM 50.0 °F - 32.0 °F 50% 30.01 in 10.0 mi NW 16.1 mph 21.9 mph N/A   Overcast
12:15 PM 50.0 °F - 33.8 °F 54% 30.02 in 10.0 mi NW 12.7 mph 19.6 mph N/A   Overcast
12:35 PM 48.2 °F - 32.0 °F 54% 30.03 in 10.0 mi WNW 12.7 mph 18.4 mph N/A   Overcast
12:55 PM 50.0 °F - 33.8 °F 54% 30.03 in 10.0 mi NW 10.4 mph 16.1 mph N/A   Overcast
1:15 PM 50.0 °F - 33.8 °F 54% 30.03 in 10.0 mi NW 9.2 mph 17.3 mph N/A   Overcast
1:35 PM 50.0 °F - 33.8 °F 54% 30.04 in 10.0 mi WNW 9.2 mph - N/A   Overcast
1:55 PM 50.0 °F - 32.0 °F 50% 30.05 in 10.0 mi WNW 8.1 mph - N/A   Overcast
2:15 PM 50.0 °F - 32.0 °F 50% 30.06 in 10.0 mi West 13.8 mph 17.3 mph N/A   Mostly Cloudy
2:35 PM 53.6 °F - 32.0 °F 44% 30.06 in 10.0 mi West 11.5 mph 16.1 mph N/A   Scattered Clouds
3:15 PM 51.8 °F - 28.4 °F 41% 30.07 in 10.0 mi WNW 12.7 mph 19.6 mph N/A   Mostly Cloudy
3:35 PM 53.6 °F - 26.6 °F 35% 30.07 in 10.0 mi NNW 12.7 mph 17.3 mph N/A   Scattered Clouds
3:55 PM 53.6 °F - 23.0 °F 30% 30.08 in 10.0 mi NW 11.5 mph 21.9 mph N/A   Clear
4:15 PM 53.6 °F - 21.2 °F 28% 30.08 in 10.0 mi WNW 10.4 mph 16.1 mph N/A   Clear
4:35 PM 51.8 °F - 19.4 °F 28% 30.09 in 10.0 mi NNW 15.0 mph - N/A   Clear
4:55 PM 51.8 °F - 19.4 °F 28% 30.10 in 10.0 mi WNW 8.1 mph - N/A   Clear
5:15 PM 50.0 °F - 19.4 °F 30% 30.12 in 10.0 mi WNW 8.1 mph 17.3 mph N/A   Clear
5:35 PM 51.8 °F - 17.6 °F 26% 30.13 in 10.0 mi WNW 10.4 mph - N/A   Clear
6:35 PM 46.4 °F 41.5 °F 17.6 °F 32% 30.15 in 10.0 mi NW 10.4 mph - N/A   Clear
6:55 PM 46.4 °F 41.5 °F 15.8 °F 29% 30.16 in 10.0 mi NNW 10.4 mph 16.1 mph N/A   Clear
7:15 PM 44.6 °F 40.2 °F 17.6 °F 34% 30.18 in 10.0 mi NNW 8.1 mph - N/A   Clear
7:35 PM 42.8 °F 38.6 °F 19.4 °F 39% 30.19 in 10.0 mi NNW 6.9 mph - N/A   Clear
7:55 PM 41.0 °F 37.1 °F 19.4 °F 42% 30.21 in 10.0 mi NNW 5.8 mph - N/A   Clear
8:15 PM 41.0 °F 36.4 °F 21.2 °F 45% 30.22 in 10.0 mi NNW 6.9 mph - N/A   Clear
8:35 PM 39.2 °F 35.9 °F 21.2 °F 49% 30.23 in 10.0 mi NW 4.6 mph - N/A   Clear
8:55 PM 37.4 °F 34.9 °F 21.2 °F 52% 30.24 in 10.0 mi North 3.5 mph - N/A   Clear
9:15 PM 37.4 °F 32.8 °F 21.2 °F 52% 30.25 in 10.0 mi NW 5.8 mph - N/A   Clear
10:15 PM 35.6 °F 32.8 °F 23.0 °F 60% 30.28 in 10.0 mi NNW 3.5 mph - N/A   Clear
10:35 PM 35.6 °F 32.8 °F 23.0 °F 60% 30.29 in 10.0 mi NW 3.5 mph - N/A   Clear
10:55 PM 35.6 °F 32.8 °F 23.0 °F 60% 30.29 in 10.0 mi NW 3.5 mph - N/A   Clear
11:15 PM 35.6 °F - 23.0 °F 60% 30.31 in 10.0 mi Calm Calm - N/A   Clear
11:35 PM 35.6 °F 32.8 °F 23.0 °F 60% 30.31 in 10.0 mi WNW 3.5 mph - N/A   Clear